Regional Weather Roundup
Issued by NWS

Home | Current Version | Previous Version | Text Only | Print | Product List | Glossary Off
Versions: 1 2 3 4 5 6 7 8 9 10 11 12 13 14 15 16 17 18 19 20 21 22 23 24 25 26 27 28 29 30 31 32 33 34 35 36 37 38 39 40 41 42 43 44 45 46 47 48 49 50

040
ASUS43 KLOT 062208
RWRIL

ILLINOIS REGIONAL WEATHER ROUNDUP
NATIONAL WEATHER SERVICE CHICAGO/ROMEOVILLE IL
500 PM CDT FRI MAY 06 2016

NOTE: "FAIR" INDICATES FEW OR NO CLOUDS BELOW 12,000 FEET WITH NO
SIGNIFICANT WEATHER AND/OR OBSTRUCTIONS TO VISIBILITY.

* THESE STATIONS ARE NOT UNDER NWS QUALITY CONTROL. THEY ALSO MAY NOT
  REPORT WEATHER SUCH AS PRECIPITATION OR FOG.

ILZ001-002-007-009-015-016-024-062300-
NORTHWEST ILLINOIS

CITY           SKY/WX    TMP DP  RH WIND       PRES   REMARKS
MOLINE         SUNNY     85  45  24 W20       29.84F HX  82
STERLING*      SUNNY     82  50  32 W16       29.83F HX  81
SAVANNA*       SUNNY     85  46  24 W10       29.82F HX  83
$$

ILZ003-004-008-010-011-017-018-062300-
NORTH CENTRAL ILLINOIS

CITY           SKY/WX    TMP DP  RH WIND       PRES   REMARKS
ROCKFORD       SUNNY     83  49  30 W13       29.84F HX  81
FREEPORT*      SUNNY     81  50  33 W13       29.84F HX  80
ROCHELLE*      SUNNY     82  49  32 W15G22    29.84F HX  80
DE KALB*       SUNNY     81  48  31 W14G22    29.84F HX  80
$$

ILZ005-006-012>014-019>023-062300-
NORTHEAST ILLINOIS

CITY           SKY/WX    TMP DP  RH WIND       PRES   REMARKS
CHICAGO-OHARE  MOSUNNY   81  49  32 W9        29.80F HX  80
CHICAGO-MIDWAY MOSUNNY   82  45  27 W12       29.81F HX  80
AURORA         SUNNY     83  45  26 W18       29.82F HX  81
LANSING*       SUNNY     78  47  33 SW8       29.83F
JOLIET*        SUNNY     84  47  26 W6        29.82F HX  82
WAUKEGAN       SUNNY     83  47  28 VRB7      29.78F HX  81
DUPAGE AIRPORT SUNNY     82  46  28 W15       29.81F HX  80
KANKAKEE*      MOSUNNY  N/A N/A N/A W10G17    29.84F
WHEELING       SUNNY     82  46  28 W13       29.81F HX  80
MORRIS*        SUNNY     83  43  24 NW17G25   29.81F HX  81
ROMEOVILLE*    MOSUNNY   82  42  24 W12       29.82F HX  80
NORTHERLY ISL    N/A     81  42  25 SW7         N/A
$$

LMZ740>746-062300-
SOUTHERN LAKE MICHIGAN

STATION/POSITION SKY/WX   TEMP    WIND        PRES    VSBY  WAVE
                          AIR SEA DIR/SP/G                  HT/PER
                          (F)     (DEG/KT/KT) (MB)    (MI)  (FT/S)
SOUTHERN BUOY              48 41  140/ 12/ 14 1009.5F         1/ 3
WILMETTE HARBOR            51 45  170/ 10/ 10   N/A           1/ 2
HARRISON CRIB              73     190/  7/  8   N/A
BURNHAM HARBOR             81     280/  4/ 12   N/A
CALUMET HARBOR             77     200/  8/ 12 1010.0F
BURNS HARBOR               70     250/ 10/ 12 1011.5F
MICHIGAN CITY              66     350/  3/  3   N/A
ST. JOSEPH                 64 33                N/A           0
$$

ILZ025>027-034>036-040-047-049-050-058-095>099-062300-
WEST-CENTRAL ILLINOIS

CITY           SKY/WX    TMP DP  RH WIND       PRES   REMARKS
QUINCY         SUNNY     81  48  31 W12       29.93F HX  80
GALESBURG*     SUNNY     82  48  29 SW16      29.88F HX  81
MACOMB*        SUNNY     83  44  25 W14       29.92F HX  81
JACKSONVILLE*  SUNNY     82  44  25 W12       29.92F HX  80
PITTSFIELD*    SUNNY     81  47  30 W9G16     29.94F HX  80
$$

ILZ028>032-037-038-041>044-048-051>054-059>061-062300-
CENTRAL ILLINOIS

CITY           SKY/WX    TMP DP  RH WIND       PRES   REMARKS
PONTIAC        PTSUNNY   85  44  24 W16G25    29.85F HX  82
BLOOMINGTON    SUNNY     81  47  30 W9G20     29.90F HX  80
DECATUR        SUNNY     79  44  28 W14       29.91F
PEORIA         SUNNY     83  43  24 W9        29.88F HX  81
LACON*         SUNNY     83  44  24 W9        29.85F HX  81
LINCOLN*       SUNNY     82  47  28 W8        29.89F HX  81
SPRINGFIELD    PTSUNNY   84  43  23 W12       29.91F HX  81
TAYLORVILLE    SUNNY     79  44  29 W9G20     29.92F
$$

ILZ033-039-045-046-055>057-062-063-062300-
EAST-CENTRAL ILLINOIS

CITY           SKY/WX    TMP DP  RH WIND       PRES   REMARKS
CHAMPAIGN      SUNNY     79  42  26 W12G23    29.90F
RANTOUL*       SUNNY     82  44  26 W12G22    29.88F HX  80
MATTOON        MOSUNNY   73  42  32 SW8G17    29.93F
PARIS*         MOSUNNY   73  45  36 W3        29.93F
$$

ILZ079-100>102-062300-
SOUTHWEST ILLINOIS

CITY           SKY/WX    TMP DP  RH WIND       PRES   REMARKS
ALTON          SUNNY     77  45  31 W12       29.96F
BELLEVILLE     SUNNY     78  45  31 W6        29.95F
CAHOKIA*       SUNNY     80  39  23 W8        29.96F
SPARTA*        MOSUNNY   73  45  37 W6        29.99F
$$

ILZ064>066-069>071-074>076-080>082-084>086-088>090-092>094-062300-
SOUTH-CENTRAL ILLINOIS

CITY           SKY/WX    TMP DP  RH WIND       PRES   REMARKS
CARBONDALE     SUNNY     74  44  34 NW7       29.99F
CAIRO*         SUNNY     74  43  32 NW7       30.00S
EFFINGHAM*     MOSUNNY   74  49  41 SW7       29.96F
MT. VERNON     CLOUDY    73  46  38 W6        29.98F
CENTRALIA*     SUNNY     75  51  42 W6        29.96F
SALEM*         SUNNY     75  46  35 W7        29.97F
METROPOLIS*    SUNNY     74  47  38 NW6       29.99F
$$

ILZ067-068-072-073-078-083-087-091-062300-
SOUTHEAST ILLINOIS

CITY           SKY/WX    TMP DP  RH WIND       PRES   REMARKS
LAWRENCEVILLE  PTSUNNY   74  44  34 NW12      29.95F
FLORA*         MOSUNNY   74  46  36 NW7       29.96F
FAIRFIELD*     MOSUNNY   73  47  40 W6        29.95F
HARRISBURG*    SUNNY     73  45  36 NW8       29.98F
ROBINSON*      PTSUNNY   71  45  39 NW7       29.95F
CARMI*         SUNNY     72  45  38 NW8       29.96F
$$

ABBREVIATIONS USED IN REMARKS
   TC - TEMPERATURE IN CELSIUS
  WCI - WIND CHILL INDEX
   HX - HEAT INDEX
  VSB - VISIBILITY
$$





USA.gov is the U.S. government's official web portal to all federal, state and local government web resources and services.